Reflectivity
5 5 -12 5 18 1 -20 2 -0 -20 -3 -8 3 15 23 -20 -20 -7 -7 11 2 -20 -1 2 14 9 23 23 -20 -20 -20 -20 -20 -20 -20 -20 -20 -20 -20 -20 -20 -20 -20 -20 -20 -20 -20
1 1 -15 -13 11 15 -16 3 10 2 -20 -20 -19 -4 12 -20 -20 -6 -0 5 -16 -20 -8 -10 8 4 5 -4 -20 -20 -20 -20 -20 -20 -20 -20 -20 -20 -20 -20 -20 -20 -20 -20 -20 -20 -20
2 5 0 -20 -1 17 17 7 2 5 -19 -20 -20 16 -20 24 -18 -8 10 -2 -12 -20 -20 -10 7 1 -18 -10 -20 -20 -20 -20 -20 -20 -20 -20 -20 -20 -20 -20 -20 -20 -20 -20 -20 -20 -20
16 10 13 5 -20 10 15 12 6 -4 -10 -20 -20 -20 7 21 19 18 17 5 -20 -20 -20 -9 -3 -16 14 -20 -20 -20 -20 -20 -20 -20 -20 -20 -20 -20 -20 -20 -20 -20 -20 -20 -20 -20 -20
8 13 14 16 1 -20 10 -20 11 -20 -16 -20 -20 -20 -20 -20 5 8 16 -4 -17 -20 -17 -15 -19 -20 11 -20 -20 -20 -20 -20 -20 -20 -20 -20 -20 -20 -20 -20 -20 -20 -20 -20 -20 -20 -20
-7 3 15 16 9 -8 -14 -5 5 -20 -20 -20 -20 -20 -20 -20 -18 -13 6 9 -17 -17 -20 -20 -20 -19 -20 -20 -20 -20 -20 -20 -20 -20 -20 -20 -20 -20 -20 -20 -20 -20 -20 -20 -20 -20 -20
12 0 14 14 -0 7 -0 -7 -20 -12 -20 -20 -20 -20 -20 -20 -20 -20 -20 -20 -6 -20 -10 -20 -20 -20 -20 -20 -20 -20 -20 -20 -20 -20 -20 -20 -20 -20 -20 -20 -20 -20 -20 -20 -20 -20 -20
13 14 15 13 11 14 7 9 -16 -20 -20 -20 -20 -20 -20 -20 -20 -20 -20 -20 -20 -20 -20 -20 -20 -20 -20 -20 -20 -20 -20 -20 -20 -20 -20 -20 -20 -20 -20 -20 -20 -20 -20 -20 -20 -20 -20
16 14 13 13 14 13 16 16 17 7 -20 -20 -20 -20 -20 -20 -20 -20 -20 -20 -20 -20 -20 -20 -20 -20 -20 -20 -20 -20 -20 -20 -20 -20 -20 -20 -20 -20 -20 -20 -20 -20 -20 -20 -20 -20 -20
14 11 12 12 14 15 13 12 -11 6 -1 -20 -20 -20 -20 -20 -20 -20 -20 -20 -20 -20 -20 -20 -20 -20 -20 -20 -20 -20 -20 -20 -20 -20 -20 -20 -20 -20 -20 -20 -20 -20 -20 -20 -20 -20 -20
12 16 13 13 9 13 14 -15 -20 -20 -20 -20 -20 -20 -20 -20 -20 -20 -20 -20 -20 -20 -20 -20 -20 -20 -20 -20 -20 -20 -20 -20 -20 -20 -20 -20 -20 -20 -20 -20 -20 -20 -20 -20 -20 -20 -20
3 13 6 12 8 13 11 -5 -20 -20 -20 -20 -20 -20 -20 -20 -20 -20 -20 -20 -20 7 -20 -20 -20 -20 -20 -20 -20 -20 -20 -20 -20 -20 -20 -20 -20 -20 -20 -20 -20 -20 -20 -20 -20 -20 -20
10 16 8 2 11 5 13 7 -20 -20 -20 -20 -20 -20 -20 -20 -20 -20 -20 -20 -20 -20 -20 -20 -20 -20 -20 -20 -20 -20 -20 -20 -20 -20 -20 -20 -20 -20 -20 -20 -20 -20 -20 -20 -20 -20 -20
2 1 16 13 4 -20 1 10 -20 -20 -20 -20 -20 -20 -20 -20 -20 -20 -20 -20 -20 -20 -20 -20 -20 -20 -20 -20 -20 -20 -20 -20 -20 -20 -20 -20 -20 -20 -20 -20 -20 -20 -20 -20 -20 -20 -20
-5 12 6 15 8 -20 -20 -20 -6 -20 -20 -20 -20 -20 -20 -20 -20 -20 -20 -20 -20 -20 -20 -20 -20 -20 -20 -20 -20 -20 -20 -20 -20 -20 -20 -20 -20 -20 -20 -20 -20 -20 -20 -20 -20 -20 -20
9 11 5 6 9 -17 -20 -20 -20 -20 -20 -20 -20 -20 -20 -20 -20 -20 -20 -20 -20 -20 -20 -20 -20 -20 -20 -20 -20 -20 -20 -20 -20 -20 -20 -20 -20 -20 -20 -20 -20 -20 -20 -20 -20 -20 -20
4 14 10 -7 -12 -20 -20 -20 -20 -20 -20 -20 -20 -20 -20 -20 -20 -20 -20 -20 -20 -20 -20 -20 -20 -20 -20 -20 -20 -20 -20 -20 -20 -20 -20 -20 -20 -20 -20 -20 -20 -20 -20 -20 -20 -20 -20
10 7 -1 -20 -20 -20 -20 -20 -20 -20 -20 -20 -20 -20 -20 -20 -20 -20 -20 -20 -20 -20 -20 -20 -20 -20 -20 -20 -20 -20 -20 -20 -20 -20 -20 -20 -20 -20 -20 -20 -20 -20 -20 -20 -20 -20 -20
-20 -18 -20 -20 -20 -20 -20 -20 -20 -20 -20 -20 -20 -20 -20 -20 -20 -20 -20 -20 -20 -20 -20 -20 -20 -20 -20 -20 -20 -20 -20 -20 -20 -20 -20 -20 -20 -20 -20 -20 -20 -20 -20 -20 -20 -20 -20
-20 -20 -20 -20 -20 -20 -20 -20 -20 -20 -20 -20 -20 -20 -20 -20 -20 -20 -20 -20 -20 -20 -20 -20 -20 -20 -20 -20 -20 -20 -20 -20 -20 -20 -20 -20 -20 -20 -20 -20 -20 -20 -20 -20 -20 -20 -20
4 -20 -20 -20 -20 -20 -20 -20 -20 -20 -20 -20 -20 -20 -20 -20 -20 -20 -20 -20 -20 -20 -20 -20 -20 -20 -20 -20 -20 -20 -20 -20 -20 -20 -20 -20 -20 -20 -20 -20 -20 -20 -20 -20 -20 -20 -20
2 -8 -20 -20 -20 -20 -20 -20 -20 -20 -20 -20 -20 -20 -20 -20 -20 -20 -20 -20 -20 -20 -20 -20 -20 -20 -20 -20 -20 -20 -20 -20 -20 -20 -20 -20 -20 -20 -20 -20 -20 -20 -20 -20 -20 -20 -20
-20 -20 -20 -20 -20 -20 -20 -20 -20 -20 -20 -20 -20 -20 -20 -20 -20 -20 -20 -20 -20 -20 -20 -20 -20 -20 -20 -20 -20 -20 -20 -20 -20 -20 -20 -20 -20 -20 -20 -20 -20 -20 -20 -20 -20 -20 -20
-20 -20 -20 -20 -20 -20 -20 -20 -20 -20 -20 -20 -20 -20 -20 -20 -20 -20 -20 -20 -20 -20 -20 -20 -20 -20 -16 -20 -20 -20 -20 -20 -20 -20 -20 -20 -20 -20 -20 -20 -20 -20 -20 -20 -20 -20 -20
-20 -20 -20 -20 -20 -20 -20 -20 -20 -20 -20 -20 -20 -20 -20 -20 -20 -20 -20 -20 -20 -20 -20 -20 -20 -20 -19 -12 -16 -20 -20 -20 -10 -20 -20 -20 -20 -20 -20 -20 -20 -20 -20 -20 -20 -20 -20
-20 -20 -20 -20 -20 -20 -20 -20 -20 -20 -20 -20 -20 -20 -20 -20 -20 -20 -20 -20 -20 -20 -20 -20 -20 -20 -20 -20 -20 -20 -16 -13 -2 8 11 -18 -20 -20 -20 -20 -20 -20 -20 -20 -20 -20 -20
-20 -20 -20 -20 -20 -20 -20 -16 8 -11 -15 -20 -20 -20 -20 -20 -20 -20 -20 -20 -20 -20 -20 -20 -20 -20 -20 -20 -20 -20 -20 -20 -20 -20 -13 7 5 -9 -8 -18 -13 6 -20 -20 -20 -20 -20
2 -16 -20 -20 -7 -20 -20 -19 -6 10 9 -14 -20 -20 -20 -20 -20 -20 -20 -20 -20 -20 -13 -20 -20 -20 -20 -20 -20 -20 -20 -20 -20 -20 -20 -20 -20 -14 -18 -1 -20 -4 16 9 -15 -20 -20
10 8 -10 -20 -20 -20 -20 -16 -18 4 16 14 -19 -17 -18 -7 -9 -20 -20 -20 -20 -20 -20 -20 -20 -20 -20 -20 -20 -20 -20 -20 -20 -20 -13 -20 -20 -20 -20 -20 -20 -20 -20 -20 -20 -20 -20
Wind_Speed
18 18 19 20 21 21 21 21 22 24 27 27 27 33 26 17 15 13 14 14 16 13 18 18 15 12 5 7 6 10 17 10 1 2 5 9 13 7 8 7 5 11 5 6 6 7 6
19 19 18 19 20 19 20 21 22 24 25 26 27 29 28 15 14 12 14 16 17 18 19 11 8 1 6 16 7 12 10 6 2 4 5 3 5 8 10 5 5 6 10 7 7 5 5
18 19 19 19 19 19 19 21 22 23 23 22 22 20 26 26 15 14 18 19 19 18 11 10 6 4 19 8 8 10 6 4 3 3 6 5 4 3 5 9 6 6 8 6 9 6 4
18 19 19 19 18 18 19 20 22 21 22 20 19 19 21 24 24 22 22 18 16 12 11 8 8 6 9 3 6 11 7 10 10 13 12 7 10 11 4 9 3 3 1 5 5 6 2
19 18 20 19 19 18 18 19 20 21 20 19 17 17 12 18 14 16 16 14 12 12 10 5 6 5 6 6 6 9 7 6 7 8 8 6 7 6 4 8 6 1 5 3 3 5 4
20 20 20 20 20 19 19 18 19 19 19 17 17 15 12 7 9 7 10 6 6 7 9 4 4 9 7 5 5 7 4 5 7 3 5 7 6 5 4 2 6 7 5 3 2 4 3
19 20 20 20 20 20 19 19 18 18 17 17 15 13 11 5 9 6 3 3 1 8 11 9 4 8 2 8 3 10 6 4 3 8 6 7 8 7 6 5 4 6 6 5 2 2 5
21 21 20 20 20 20 20 19 18 17 16 15 14 12 11 9 9 9 3 5 2 1 10 12 9 5 3 4 6 16 10 4 5 7 2 6 8 2 2 4 6 5 5 3 2 1 4
19 20 20 21 21 21 20 19 18 17 16 15 13 11 11 3 4 6 6 5 1 4 5 9 5 6 5 8 7 11 8 3 8 8 7 8 6 0 0 4 5 5 2 2 3 6 0
18 20 21 21 21 21 21 22 20 18 15 13 11 10 10 5 1 1 3 3 4 4 5 13 10 8 4 3 5 4 5 3 6 8 7 9 3 2 3 4 4 3 3 2 3 5 4
18 19 19 19 21 20 21 22 20 18 15 12 7 8 9 7 5 2 2 4 4 3 4 10 6 6 6 5 2 9 4 6 7 5 3 3 3 4 4 3 4 4 1 2 1 1 3
17 18 19 20 19 20 19 20 20 18 16 12 4 5 1 2 2 3 1 2 2 1 5 4 5 8 2 7 4 4 4 7 2 8 13 5 2 2 3 2 4 6 2 1 1 2 3
16 17 16 19 21 20 19 19 19 19 17 11 3 8 3 2 2 2 1 1 2 6 1 3 3 4 4 8 5 7 5 6 3 3 2 3 3 2 1 2 2 4 4 2 2 2 3
16 17 17 16 21 19 21 20 20 20 18 9 5 4 5 3 2 4 0 2 7 2 3 2 1 3 4 6 4 5 2 4 6 3 3 3 3 1 1 2 2 1 3 2 4 3 3
14 16 16 16 17 19 20 21 20 20 19 6 1 3 3 2 1 2 3 7 3 3 4 5 3 2 2 2 1 2 5 3 3 4 2 1 4 2 3 2 3 3 2 3 3 2 4
12 14 16 17 17 18 19 21 21 21 20 3 2 2 3 1 3 3 3 5 2 1 2 1 1 2 2 3 2 1 1 2 3 0 2 2 2 2 2 1 5 3 5 2 1 4 5
12 14 14 16 16 16 18 20 21 21 20 1 0 2 2 2 3 1 5 5 4 2 2 1 2 3 2 2 1 1 2 3 2 3 1 3 1 3 3 6 5 4 4 1 4 3 4
11 14 14 15 15 15 18 20 20 20 20 3 0 2 2 2 2 3 3 4 3 3 1 0 2 2 1 3 2 2 2 1 4 5 2 1 1 4 2 3 3 3 3 7 4 5 4
9 11 13 14 15 15 16 19 20 20 13 3 3 2 1 3 4 3 2 3 1 3 3 1 1 1 1 3 2 2 2 1 6 6 4 5 2 3 3 4 3 6 10 8 2 2 9
9 9 10 13 14 13 13 17 20 20 14 2 1 3 4 5 2 4 3 2 3 1 2 2 1 1 1 1 0 2 2 2 3 2 2 4 3 6 4 3 2 5 9 14 13 6 9
10 10 9 11 13 13 12 13 18 20 14 0 5 3 2 4 5 5 1 3 3 3 0 2 2 4 3 2 1 3 2 2 2 1 2 3 5 4 12 13 12 16 16 15 20 21 14
9 11 11 10 12 13 11 12 14 18 13 4 2 0 2 1 1 0 2 2 4 3 5 3 4 2 6 4 4 4 6 4 3 5 6 3 3 1 7 11 11 18 20 23 25 25 27
9 10 11 10 11 11 8 10 11 16 9 3 1 1 1 2 2 1 1 2 1 0 1 2 4 5 5 10 8 7 6 1 1 5 10 5 4 2 6 5 14 19 21 24 15 17 20
7 9 10 10 9 9 6 5 8 10 7 2 2 0 1 1 2 1 1 1 2 2 2 2 3 3 1 2 1 1 3 5 6 8 5 6 5 2 5 6 6 3 4 2 14 15 20
6 7 7 8 8 7 5 2 4 5 6 1 3 1 1 2 1 3 3 3 3 3 3 3 3 1 0 1 3 4 2 2 1 1 7 4 6 4 5 4 15 6 3 1 3 8 14
5 7 5 6 6 6 4 3 3 2 0 2 0 3 1 3 2 0 1 1 2 1 2 1 1 1 1 1 2 3 3 2 3 2 3 5 4 7 3 4 6 2 2 1 2 4 3
6 4 5 4 3 2 4 3 4 4 4 0 2 2 3 1 2 4 3 1 3 0 2 1 1 2 1 3 4 5 5 1 4 4 5 5 5 14 12 7 11 11 6 1 5 3 2
2 1 3 4 1 2 2 2 4 6 6 3 1 2 1 1 3 8 5 5 2 2 2 2 2 2 2 5 4 4 4 3 3 2 6 8 8 6 8 8 13 5 6 6 3 2 2
1 1 3 4 4 4 3 1 4 3 6 5 1 1 0 2 4 2 4 3 5 4 3 3 1 1 2 3 2 2 4 4 5 4 3 6 8 4 11 9 2 6 11 6 5 9 15
Wind_Direction
19 22 14 11 15 12 13 13 11 8 11 9 11 23 42 62 73 96 100 106 106 108 113 129 140 151 185 75 33 338 339 337 307 145 105 150 148 128 114 107 100 92 112 74 88 89 63
16 14 19 14 13 12 8 9 11 6 9 11 12 21 19 66 82 87 94 101 102 115 110 109 122 116 99 71 349 341 342 323 60 122 94 101 112 109 90 72 44 106 107 100 65 69 61
17 19 14 12 15 10 7 2 8 9 8 15 17 26 30 50 90 93 96 98 105 112 80 60 32 115 64 49 341 344 9 343 317 119 95 57 99 87 126 105 115 123 105 109 41 18 40
18 21 16 13 10 13 9 8 7 12 10 13 20 24 51 40 64 77 81 86 81 71 40 12 22 87 79 345 341 21 5 80 80 77 94 86 79 87 42 110 87 129 167 146 47 2 22
14 16 18 14 13 14 13 9 10 10 15 10 16 26 39 74 58 83 78 76 62 37 17 40 54 72 68 338 24 338 7 75 90 75 72 84 70 65 130 142 127 42 152 121 126 39 326
15 11 19 15 12 14 16 14 15 15 12 17 6 21 25 81 98 109 99 88 359 356 334 179 84 86 26 359 330 331 351 10 66 92 76 45 67 99 108 215 171 165 136 144 163 34 313
17 13 15 15 13 11 16 15 14 18 16 10 12 5 9 27 95 98 136 282 346 3 28 52 63 74 20 324 304 17 357 337 31 53 89 36 81 78 58 35 53 112 123 124 98 48 292
22 15 13 11 11 12 10 14 15 13 12 9 11 6 356 10 69 81 82 71 81 90 63 28 35 56 26 346 49 13 1 47 50 82 128 87 80 67 36 71 85 91 128 99 122 24 303
17 15 13 11 10 10 8 9 11 12 8 1 5 7 359 348 330 39 65 83 162 194 82 34 24 25 356 5 41 1 3 39 51 65 68 87 96 11 91 88 103 54 24 68 5 322 180
19 14 10 8 7 8 8 7 8 11 8 358 348 3 7 311 269 39 45 351 311 298 73 356 360 38 341 335 67 357 17 24 51 82 62 70 60 102 106 76 331 151 39 41 9 336 284
12 8 7 9 6 5 7 6 6 8 13 3 346 354 35 42 116 52 46 321 312 241 83 346 344 331 341 50 348 31 11 41 75 53 261 63 70 67 67 21 342 84 62 51 13 358 322
7 2 0 8 4 2 3 3 0 -0 3 7 14 358 307 38 72 91 157 349 271 229 57 354 335 355 30 27 45 332 48 59 103 71 66 88 95 47 80 69 60 139 159 110 120 289 258
358 356 1 1 3 359 1 359 357 355 357 4 66 64 61 350 91 72 333 253 110 58 316 358 16 13 64 17 47 23 32 45 40 109 113 132 63 65 348 144 130 230 236 283 251 216 285
353 351 353 357 2 360 359 358 352 352 352 359 84 122 53 47 79 125 226 193 77 208 199 177 243 58 71 359 46 20 88 90 58 12 116 156 169 116 55 349 328 68 300 271 270 281 322
345 344 343 348 356 358 354 355 351 349 351 350 168 105 109 88 144 239 217 54 92 182 154 170 145 131 74 70 70 85 44 53 29 4 41 165 109 100 43 11 330 109 223 25 92 124 269
337 336 335 342 350 353 350 350 350 349 353 352 144 137 82 98 154 227 84 102 69 143 134 225 125 324 135 121 184 120 113 140 135 99 305 120 146 48 69 210 71 326 123 178 158 285 270
330 329 334 342 345 348 346 347 348 351 355 272 349 151 74 111 205 117 74 83 126 212 249 55 120 126 103 135 70 81 96 133 204 150 79 143 184 119 223 202 189 159 198 176 300 260 291
331 332 340 341 340 344 344 344 347 355 353 54 35 58 66 238 58 39 55 101 141 151 245 103 117 105 141 163 145 161 149 216 167 167 162 81 207 222 208 107 264 246 234 212 245 182 245
334 334 333 338 339 341 345 341 345 355 25 323 47 333 90 276 71 73 99 83 66 154 154 142 120 308 190 173 176 209 201 85 177 182 171 166 208 272 180 162 182 223 196 212 208 336 230
321 327 330 331 330 331 343 343 343 350 8 74 22 15 10 57 23 95 134 121 120 41 113 114 80 140 165 180 272 152 210 125 193 208 129 183 213 245 275 26 84 213 212 211 207 217 241
299 303 310 316 319 325 340 347 344 344 354 8 10 85 10 5 38 39 57 138 144 179 50 205 153 230 190 193 206 242 198 152 153 161 110 271 264 230 259 266 251 255 252 223 216 225 234
310 313 308 303 307 321 337 346 347 342 345 70 63 40 134 46 259 166 360 184 180 175 181 196 224 171 203 234 229 196 185 209 221 163 181 176 261 286 274 265 265 259 251 240 240 242 252
299 297 292 292 300 315 326 345 351 348 352 80 86 86 250 35 325 250 59 135 121 300 186 304 190 171 209 244 248 251 230 317 218 186 192 193 220 283 280 336 312 279 254 228 224 225 235
296 293 287 285 288 309 306 348 350 -0 22 71 85 105 259 165 257 288 183 222 248 220 208 126 189 218 53 97 145 146 210 250 235 219 222 180 190 229 290 315 254 22 329 336 224 244 226
290 300 285 272 280 299 276 323 339 343 4 41 127 86 322 292 260 243 212 224 277 276 249 236 207 340 43 228 268 287 205 212 156 59 217 235 209 259 269 264 297 294 85 176 214 297 233
285 304 302 275 276 292 233 278 291 292 93 340 155 131 101 311 230 2 129 201 295 275 255 204 46 57 129 199 209 252 254 331 209 133 40 176 250 219 177 260 262 27 92 182 243 291 50
239 289 334 310 258 269 203 217 272 255 214 223 324 271 132 191 229 167 223 245 141 171 274 288 169 163 247 180 197 214 236 204 243 202 162 159 201 223 228 257 277 264 233 126 278 77 134
235 283 351 358 45 122 163 274 276 261 211 174 13 246 288 191 258 187 199 186 140 188 221 120 268 170 140 202 219 205 231 203 257 151 186 188 183 195 198 217 262 129 96 209 6 239 272
221 23 29 9 50 73 71 351 289 244 207 186 149 319 231 203 298 265 237 231 220 197 170 203 286 173 210 207 242 273 220 216 213 227 192 228 215 195 211 220 323 204 246 242 271 287 294